Weather History for KPUB - May, 2014

Change the Weather History Date:

Friday, May 16, 2014

  Actual Average Record
Temperature  
Mean Temperature 62 °F 60 °F  
Max Temperature 82 °F 77 °F 98 °F (1996)
Min Temperature 41 °F 44 °F 31 °F (1916)
Degree Days  
Heating Degree Days 3 5  
Month to date heating degree days 145 118  
Since 1 July heating degree days 5402 5558  
Cooling Degree Days 0 1  
Month to date cooling degree days 7 7  
Year to date cooling degree days 9 9  
Growing Degree Days 12 (Base 50)    
Moisture  
Dew Point 35 °F    
Average Humidity 43    
Maximum Humidity 77    
Minimum Humidity 9    
Precipitation  
Precipitation 0.01 in 0.04 in 0.92 in (1968)
Month to date precipitation 0.25 0.79  
Year to date precipitation 3.80 3.77  
Snow  
Snow 0.00 in 0.00 in T in (1968)
Month to date snowfall T 0.5  
Since 1 July snowfall 29.3 31.8  
Snow Depth 0.00 in    
Sea Level Pressure  
Sea Level Pressure 29.96 in    
Wind  
Wind Speed 11 mph (NNW)    
Max Wind Speed 32 mph    
Max Gust Speed 38 mph    
Visibility 10 miles    
Events Rain    
T = Trace of Precipitation, MM = Missing Value Source: NWS Daily Summary

Daily Weather History Graph

Daily Weather History Graph

Search for Another Location

Airport or City:

Trip Planner

Search our weather history database for the weather conditions in past years. The results will help you decide how hot, cold, wet, or windy it might be!

Date:

Astronomy

May. 16, 2014 Rise Set
Actual Time 5:46 AM MDT 8:03 PM MDT
Civil Twilight 5:16 AM MDT 8:33 PM MDT
Nautical Twilight 4:39 AM MDT 9:09 PM MDT
Astronomical Twilight 3:59 AM MDT 9:50 PM MDT
Moon 10:12 PM MDT (5/16) 7:30 AM MDT (5/16)
Length of Visible Light 15h 16m
Length of Day
14h 17m
Waning Gibbous, 95% of the Moon is Illuminated
May 16
Waning Gibbous
May 21
Last Quarter
May 28
New
Jun 5
First Quarter
Jun 12
Full

Hourly Weather History & Observations

Time (MDT) Temp. Windchill Dew Point Humidity Pressure Visibility Wind Dir Wind Speed Gust Speed Precip Events Conditions
12:53 AM 48.9 °F - 35.1 °F 59% 30.07 in 10.0 mi Calm Calm - N/A   Clear
1:53 AM 46.4 °F - 33.8 °F 62% 30.13 in 10.0 mi Calm Calm - N/A   Clear
2:53 AM 43.0 °F 39.5 °F 33.1 °F 68% 30.01 in 10.0 mi WSW 5.8 mph - N/A   Clear
3:53 AM 45.0 °F 42.6 °F 34.0 °F 65% 29.98 in 10.0 mi NNW 4.6 mph - N/A   Clear
4:53 AM 45.0 °F 40.1 °F 35.1 °F 68% 29.97 in 10.0 mi West 9.2 mph - N/A   Clear
5:53 AM 44.1 °F 39.5 °F 34.0 °F 68% 29.98 in 10.0 mi NNW 8.1 mph - N/A   Clear
6:53 AM 46.0 °F 43.1 °F 35.1 °F 66% 29.98 in 10.0 mi WNW 5.8 mph - N/A   Clear
7:53 AM 54.0 °F - 36.0 °F 51% 29.95 in 10.0 mi West 5.8 mph - N/A   Clear
8:53 AM 59.0 °F - 36.0 °F 42% 29.92 in 10.0 mi WSW 8.1 mph - N/A   Clear
9:53 AM 69.1 °F - 34.0 °F 27% 29.87 in 10.0 mi SW 8.1 mph - N/A   Clear
10:53 AM 77.0 °F - 19.0 °F 11% 29.84 in 10.0 mi WNW 26.5 mph 33.4 mph N/A   Clear
11:53 AM 80.1 °F - 19.0 °F 10% 29.82 in 10.0 mi WNW 23.0 mph 29.9 mph N/A   Clear
12:53 PM 80.1 °F - 17.1 °F 9% 29.80 in 10.0 mi NNW 16.1 mph 28.8 mph N/A   Clear
1:53 PM 75.2 °F - 23.0 °F 14% 29.95 in 10.0 mi East 9.2 mph 20.7 mph N/A   Partly Cloudy
2:53 PM 75.0 °F - 26.1 °F 16% 29.86 in 10.0 mi WNW 18.4 mph 27.6 mph N/A   Mostly Cloudy
3:53 PM 73.9 °F - 36.0 °F 25% 29.86 in 10.0 mi NE 23.0 mph - N/A   Partly Cloudy
4:53 PM 70.0 °F - 39.0 °F 32% 29.93 in 10.0 mi NE 21.9 mph - N/A   Overcast
5:53 PM 63.0 °F - 45.0 °F 52% 29.96 in 10.0 mi NNE 20.7 mph - 0.00 in Rain Light Rain
6:53 PM 63.0 °F - 43.0 °F 48% 29.99 in 10.0 mi NE 17.3 mph - 0.00 in Rain Light Rain
7:53 PM 59.0 °F - 42.1 °F 53% 30.01 in 10.0 mi ENE 12.7 mph - 0.00 in   Scattered Clouds
8:53 PM 57.2 °F - 41.0 °F 55% 30.15 in 10.0 mi East 9.2 mph - N/A   Overcast
9:53 PM 55.9 °F - 44.1 °F 64% 30.05 in 10.0 mi NE 3.5 mph - 0.00 in Rain Light Rain
10:53 PM 53.1 °F - 46.9 °F 80% 30.04 in 10.0 mi South 5.8 mph - 0.01 in   Overcast
11:53 PM 51.1 °F - 45.0 °F 80% 30.01 in 10.0 mi SE 4.6 mph - 0.00 in   Mostly Cloudy